sat.trackr.live / text

‹ back to catalog

STARLINK-3113

NORAD 49735 · 2021-115M

PAYLOAD ACTIVE UNKNOWN

§ Identity

Operator
Country
US
Launch date
2021-12-02
Launch site
AFETR
Launch vehicle
Mass (kg)
RCS (m²)

Purposes: comms

External: N2YO · Heavens-Above · Gunter

§ Orbital elements

Epoch: 2026-09-12T14:32:11.031072Z

Period
93.85 min
Inclination
53.1624°
Eccentricity
0.0001227
Mean motion
15.34390015 rev/d
Perigee alt
461.9 km
Apogee alt
463.6 km
Semi-major
6,840.9 km
B*
1.8072e-5
RAAN
26.3396°
Arg perigee
92.0671°
Mean anomaly
268.0473°
Rev number
26,379

§ Raw data

STARLINK-31131 49735U 21115M   26255.60568323  .00000234  00000+0  18072-4 0  99912 49735  53.1624  26.3396 0001227  92.0671 268.0473 15.34390015263795

JSON: /api/v1/satellites/49735 · /tle

For live sub-satellite position, see the globe view (requires WebGL).

§ Visibility from observer

Set your observer location to see the next 7 days of passes ≥ 10°. The values pass through the URL so the page stays shareable.

No JS? Fill the form by hand. The geolocation button needs JavaScript.